Location: Newark
(12.4436°N, 0.6167°W)
Time: 16:20:27
(UTC+00:00)

Tiros 1 despin weight - All Passes

Search period start: 10 December 2019 00:00
Search period end: 20 December 2019 00:00
Orbit: 594 x 642 km, 48.2° (Epoch: 10 December)

Date Brightness Start Highest point End Pass type
(mag) Time Alt. Az. Time Alt. Az. Time Alt. Az.
10 Dec - 01:24:03 10° SE 01:24:55 10° SE 01:25:47 10° ESE night (unlit)
10 Dec - 03:01:39 10° SW 03:06:13 62° NW 03:10:43 10° NNE night (unlit)
10 Dec - 11:44:13 10° NNE 11:45:53 12° NE 11:47:33 10° ENE daylight
10 Dec - 13:23:11 10° NW 13:27:30 57° SW 13:31:51 10° SSE daylight
11 Dec - 01:37:25 10° S 01:41:22 28° SE 01:45:17 10° ENE night (unlit)
11 Dec - 03:19:02 10° W 03:22:48 24° NW 03:26:31 10° N night (unlit)
11 Dec - 11:58:47 10° NNW 12:02:35 28° NE 12:06:25 10° ESE daylight
11 Dec - 13:40:37 10° WNW 13:43:57 21° SW 13:47:18 10° S daylight
12 Dec - 01:53:12 10° SW 01:57:51 75° SE 02:02:25 10° NE night (unlit)
12 Dec - 03:38:52 10° NW 03:39:33 10° NW 03:40:15 10° NNW night (unlit)
12 Dec - 12:14:46 10° NW 12:19:09 78° NE 12:23:34 10° SE daylight
13 Dec - 00:30:08 10° SSE 00:33:01 16° SE 00:35:53 10° E night (unlit)
13 Dec - 02:10:00 10° WSW 02:14:22 41° NW 02:18:41 10° NNE night (unlit)
13 Dec - 10:51:13 10° N 10:54:09 17° NE 10:57:04 10° E daylight
13 Dec - 12:31:34 10° WNW 12:35:37 37° SW 12:39:42 10° SSE daylight
14 Dec - 00:45:05 10° SSW 00:49:28 41° SE 00:53:49 10° ENE night (unlit)
14 Dec - 02:27:57 10° W 02:31:00 17° NW 02:34:03 10° N night (unlit)
14 Dec - 11:06:37 10° NNW 11:10:47 42° NE 11:14:58 10° ESE daylight
14 Dec - 12:49:47 10° W 12:52:04 14° SW 12:54:21 10° SSW daylight
15 Dec - 01:01:18 10° SW 01:05:57 73° NW 01:10:33 10° NE night (unlit)
15 Dec - 09:45:02 10° NE 09:45:37 10° NE 09:46:13 10° NE daylight
15 Dec - 11:22:56 10° NW 11:27:18 68° SW 11:31:40 10° SSE daylight
15 Dec - 23:37:20 10° S 23:41:07 24° SE 23:44:50 10° ENE night (unlit)
16 Dec - 01:18:31 10° WSW 01:22:31 28° NW 01:26:29 10° NNE night (unlit)
16 Dec - 09:58:44 10° N 10:02:22 25° NE 10:05:59 10° ESE daylight
16 Dec - 11:40:10 10° WNW 11:43:45 24° SW 11:47:20 10° S daylight
16 Dec - 23:52:56 10° SSW 23:57:34 64° SE 00:02:09 10° NE night (unlit)
17 Dec - 01:37:23 10° WNW 01:39:14 12° NW 01:41:05 10° NNW night (unlit)
17 Dec - 10:14:34 10° NNW 10:18:56 66° NE 10:23:19 10° SE daylight
17 Dec - 22:30:19 10° SSE 22:32:45 14° SE 22:35:11 10° E night (unlit)
18 Dec - 00:09:34 10° WSW 00:14:04 48° NW 00:18:33 10° NNE night (unlit)
18 Dec - 08:51:19 10° N 08:53:53 15° NE 08:56:27 10° E daylight
18 Dec - 10:31:15 10° WNW 10:35:25 43° SW 10:39:36 10° SSE daylight
18 Dec - 22:44:55 10° SSW 22:49:12 36° SE 22:53:27 10° ENE night (unlit)
19 Dec - 00:27:17 10° W 00:30:42 20° NW 00:34:06 10° N night (unlit)
19 Dec - 09:06:29 10° NNW 09:10:34 36° NE 09:14:37 10° ESE daylight
19 Dec - 10:49:07 10° W 10:51:51 16° SW 10:54:36 10° SSW daylight
19 Dec - 23:00:58 10° SW 23:05:39 85° NW 23:10:19 10° NE night (unlit)
